Date String (YYYY-MM-DD hh:mm:ss) UTC,Instrument flags,Ambient pressure (hPa),Sample flow (lpm),Bypass flow (lpm),Sample temperature (°C),Ambient temperature (°C),ASC tube jacket temperature (°C),LED temperature (°C),Box temperature (°C),Sample RH (%),Span deviation,Mass concentration (μg/m³),Mass concentration (μg/m³),Mass concentration (μg/m³)
DateTimeUTC,F1_M11,P_M11,Q1_M11,Q2_M11,T1_M11,T2_M11,T3_M11,T4_M11,T5_M11,U1_M11,ZSPAN_M11,X2_M11,X0_M11,X1_M11
2023-04-07 16:00:00,,0833.2,5.01,0.00,22.5,21.1,00.0,30.8,24.1,10.2,0000.0,0004.17,0011.93,0003.29
2023-04-07 16:01:00,,0833.2,4.99,0.00,22.5,21.1,00.0,30.8,24.1,10.1,0000.0,0004.18,0012.30,0003.28
2023-04-07 16:02:00,,0833.2,4.99,0.00,22.5,21.1,00.0,30.8,24.1,10.1,0000.0,0004.22,0012.67,0003.27
2023-04-07 16:03:00,,0833.2,5.01,0.00,22.5,21.1,00.0,30.8,24.1,09.9,0000.0,0004.23,0012.63,0003.26
2023-04-07 16:04:00,,0833.2,5.00,0.00,22.6,21.1,00.0,30.8,24.1,10.1,0000.0,0004.25,0011.33,0003.25
2023-04-07 16:05:00,,0833.2,5.00,0.00,22.6,21.1,00.0,30.8,24.1,10.1,0000.0,0004.27,0011.27,0003.25
2023-04-07 16:06:00,,0833.2,4.99,0.00,22.6,21.1,00.0,30.8,24.1,10.1,0000.0,0004.28,0011.81,0003.23
2023-04-07 16:07:00,,0833.2,5.00,0.00,22.6,21.1,00.0,30.9,24.1,09.9,0000.0,0004.23,0011.58,0003.21
2023-04-07 16:08:00,,0833.2,5.00,0.00,22.6,21.2,00.0,30.9,24.2,09.9,0000.0,0004.22,0011.78,0003.19
2023-04-07 16:09:00,,0833.2,5.00,0.00,22.6,21.2,00.0,30.9,24.2,09.9,0000.0,0004.21,0011.57,0003.18
2023-04-07 16:10:00,,0833.2,5.00,0.00,22.6,21.2,00.0,30.9,24.2,09.9,0000.0,0004.24,0011.34,0003.16
2023-04-07 16:11:00,,0833.2,5.00,0.00,22.6,21.3,00.0,30.9,24.2,10.0,0000.0,0004.24,0011.38,0003.16
2023-04-07 16:12:00,,0833.2,5.00,0.00,22.6,21.3,00.0,30.9,24.2,09.9,0000.0,0004.22,0010.90,0003.17
2023-04-07 16:13:00,,0833.2,5.02,0.00,22.7,21.3,00.0,30.9,24.2,09.9,0000.0,0004.23,0010.89,0003.18
2023-04-07 16:14:00,,0833.2,4.99,0.00,22.7,21.3,00.0,30.9,24.3,09.8,0000.0,0004.24,0011.38,0003.20
2023-04-07 16:15:00,,0833.1,4.99,0.00,22.7,21.3,00.0,30.9,24.2,10.1,0000.0,0004.24,0011.99,0003.21
2023-04-07 16:16:00,,0833.1,5.01,0.00,22.7,21.3,00.0,30.9,24.2,09.9,0000.0,0004.27,0012.65,0003.21
2023-04-07 16:17:00,,0833.2,5.01,0.00,22.7,21.3,00.0,30.9,24.2,09.8,0000.0,0004.25,0012.21,0003.22
2023-04-07 16:18:00,,0833.1,5.00,0.00,22.7,21.3,00.0,30.9,24.2,09.6,0000.0,0004.25,0012.32,0003.23
2023-04-07 16:19:00,,0833.1,4.99,0.00,22.7,21.2,00.0,30.9,24.2,09.7,0000.0,0004.25,0011.77,0003.24
2023-04-07 16:20:00,,0833.1,5.01,0.00,22.7,21.2,00.0,30.9,24.2,09.6,0000.0,0004.21,0011.21,0003.25
2023-04-07 16:21:00,,0833.1,5.01,0.00,22.7,21.2,00.0,30.9,24.2,09.4,0000.0,0004.18,0010.54,0003.25
2023-04-07 16:22:00,,0833.1,4.99,0.00,22.7,21.2,00.0,30.9,24.2,09.5,0000.0,0004.14,0010.46,0003.25
2023-04-07 16:23:00,,0833.0,5.00,0.00,22.7,21.2,00.0,30.9,24.2,09.6,0000.0,0004.12,0010.43,0003.25
2023-04-07 16:24:00,,0833.1,5.01,0.00,22.7,21.3,00.0,30.9,24.3,09.7,0000.0,0004.10,0010.06,0003.23
2023-04-07 16:25:00,,0833.1,4.99,0.00,22.7,21.3,00.0,30.9,24.3,09.5,0000.0,0004.07,0009.35,0003.22
2023-04-07 16:26:00,,0833.1,5.00,0.00,22.7,21.3,00.0,30.9,24.3,09.5,0000.0,0004.04,0008.72,0003.21
2023-04-07 16:27:00,,0833.1,5.00,0.00,22.7,21.3,00.0,31.0,24.2,09.4,0000.0,0003.95,0007.95,0003.21
2023-04-07 16:28:00,,0833.1,5.01,0.00,22.7,21.3,00.0,31.0,24.2,09.4,0000.0,0003.93,0008.08,0003.20
2023-04-07 16:29:00,,0833.4,5.00,0.00,22.7,21.3,00.0,31.0,24.3,09.9,0000.0,0003.94,0008.01,0003.22
2023-04-07 16:30:00,,0833.1,5.00,0.00,22.7,21.3,00.0,31.0,24.3,09.8,0000.0,0003.97,0008.65,0003.25
2023-04-07 16:31:00,,0833.0,4.99,0.00,22.7,21.3,00.0,31.0,24.3,09.5,0000.0,0004.01,0008.75,0003.26
2023-04-07 16:32:00,,0832.9,5.00,0.00,22.7,21.3,00.0,31.0,24.3,09.6,0000.0,0004.05,0008.81,0003.28
2023-04-07 16:33:00,,0833.2,5.01,0.00,22.7,21.3,00.0,31.0,24.3,09.6,0000.0,0004.08,0009.09,0003.29
2023-04-07 16:34:00,,0833.3,5.00,0.00,22.7,21.3,00.0,31.0,24.3,09.5,0000.0,0004.14,0010.11,0003.31
2023-04-07 16:35:00,,0833.1,4.99,0.00,22.7,21.3,00.0,31.0,24.3,09.7,0000.0,0004.15,0010.28,0003.34
2023-04-07 16:36:00,,0833.1,5.00,0.00,22.7,21.3,00.0,31.0,24.3,09.8,0000.0,0004.15,0010.18,0003.35
2023-04-07 16:37:00,,0833.0,5.01,0.00,22.7,21.3,00.0,31.0,24.3,10.1,0000.0,0004.19,0010.18,0003.38
2023-04-07 16:38:00,,0833.0,5.00,0.00,22.7,21.3,00.0,31.0,24.3,09.8,0000.0,0004.30,0010.56,0003.41
2023-04-07 16:39:00,,0833.0,5.01,0.00,22.7,21.3,00.0,31.0,24.3,09.6,0000.0,0004.39,0010.61,0003.44
2023-04-07 16:40:00,,0833.1,5.00,0.00,22.7,21.3,00.0,31.0,24.3,09.7,0000.0,0004.45,0010.77,0003.45
2023-04-07 16:41:00,,0833.0,4.99,0.00,22.7,21.3,00.0,31.0,24.3,10.0,0000.0,0004.44,0010.23,0003.45
2023-04-07 16:42:00,,0833.1,5.00,0.00,22.7,21.3,00.0,31.0,24.3,09.9,0000.0,0004.46,0010.16,0003.45
2023-04-07 16:43:00,,0832.9,5.01,0.00,22.8,21.4,00.0,31.0,24.3,10.4,0000.0,0004.49,0010.37,0003.47
2023-04-07 16:44:00,,0833.0,5.01,0.00,22.8,21.4,00.0,31.0,24.3,10.5,0000.0,0004.53,0010.40,0003.51
2023-04-07 16:45:00,,0832.9,5.01,0.00,22.8,21.4,00.0,31.0,24.4,10.5,0000.0,0004.57,0009.74,0003.56
2023-04-07 16:46:00,,0833.1,4.99,0.00,22.8,21.4,00.0,31.0,24.4,10.4,0000.0,0004.62,0009.77,0003.60
2023-04-07 16:47:00,,0833.2,5.00,0.00,22.8,21.4,00.0,31.1,24.4,10.5,0000.0,0004.65,0011.24,0003.63
2023-04-07 16:48:00,,0833.2,5.01,0.00,22.8,21.4,00.0,31.1,24.4,10.7,0000.0,0004.65,0011.58,0003.67
2023-04-07 16:49:00,,0833.3,4.98,0.00,22.8,21.5,00.0,31.1,24.4,10.6,0000.0,0004.66,0011.34,0003.70
2023-04-07 16:50:00,,0833.1,5.01,0.00,22.8,21.5,00.0,31.1,24.4,10.5,0000.0,0004.68,0011.13,0003.74
2023-04-07 16:51:00,,0833.0,5.01,0.00,22.8,21.5,00.0,31.1,24.4,10.3,0000.0,0004.66,0011.09,0003.78
2023-04-07 16:52:00,,0833.0,5.00,0.00,22.8,21.5,00.0,31.1,24.4,10.4,0000.0,0004.67,0011.03,0003.81
2023-04-07 16:53:00,,0833.0,4.99,0.00,22.8,21.5,00.0,31.1,24.4,10.7,0000.0,0004.69,0010.97,0003.87
2023-04-07 16:54:00,,0833.0,5.00,0.00,22.8,21.5,00.0,31.1,24.4,10.6,0000.0,0004.74,0010.88,0003.91
2023-04-07 16:55:00,,0833.0,5.01,0.00,22.8,21.5,00.0,31.1,24.4,10.7,0000.0,0004.76,0010.91,0003.94
2023-04-07 16:56:00,,0833.0,5.01,0.00,22.8,21.4,00.0,31.1,24.4,10.4,0000.0,0004.78,0010.84,0003.96
2023-04-07 16:57:00,,0833.1,4.99,0.00,22.8,21.4,00.0,31.1,24.4,10.7,0000.0,0004.78,0010.66,0003.99
2023-04-07 16:58:00,,0833.2,5.00,0.00,22.8,21.4,00.0,31.1,24.4,10.9,0000.0,0004.78,0009.24,0004.01
2023-04-07 16:59:00,,0833.4,5.01,0.00,22.8,21.5,00.0,31.1,24.4,10.1,0000.0,0004.80,0008.95,0004.02
